User: anonymous   Login
Location: Vancouver
(49.2500°N, 123.1330°W)
Time: 01:33:55
(UTC-07:00)
Language:

JAS-1B - Orbit

View from above orbital plane
View from above orbital plane
View from above satellite
View from above satellite

Ground track
Ground track

The orbit data is extracted from the following two-line orbital elements,

1 20480U 90013C   16125.16174980  .00000004  00000-0  87848-4 0  9991
2 20480  99.0253 329.7816 0539491 238.0554 237.9494 12.83410898229250
Epoch (UTC): 04 May 2016 03:52:55
Eccentricity: 0.0539491
inclination: 99.0253°
perigee height: 912 km
apogee height: 1743 km
right ascension of ascending node: 329.7816°
argument of perigee: 238.0554°
revolutions per day: 12.83410898
mean anomaly at epoch: 237.9494°
orbit number at epoch: 22925

The dashed part of the orbit path shows where the satellite is in the earth's shadow,  

DLR